Miscellaneous Local Product
Issued by NWS Hastings, NE

Home | Current Version | Previous Version | Graphics & Text | Print | Product List | Glossary On
Versions: 1 2 3 4 5 6 7 8 9 10 11 12 13 14 15 16 17 18 19 20 21 22 23 24 25 26 27 28 29 30 31 32 33 34 35 36 37 38 39 40 41 42 43 44 45 46 47 48 49 50
000
AXUS43 KGID 210302
MISGRI

GID CWA HOURLY WEATHER ROUNDUP
NATIONAL WEATHER SERVICE HASTINGS NE
900 PM CST SAT DEC 20 2014

NOTE: "FAIR" INDICATES FEW OR NO CLOUDS BELOW 12,000 FEET WITH NO
SIGNIFICANT WEATHER AND/OR OBSTRUCTIONS TO VISIBILITY.

...SOUTH CENTRAL NEBRASKA...

CITY           SKY/WX    TMP DP  RH WIND       PRES   REMARKS
GRAND ISLAND   PTCLDY    29  28  96 S6        29.97F FOG     WCI  23
HASTINGS       PTCLDY    33  31  92 S8        29.95F FOG     WCI  26
KEARNEY        CLEAR     30  28  93 SW5       29.95F WCI  25
ORD            NOT AVBL
YORK           CLOUDY    32  32 100 CALM      30.00F FOG
AURORA         FOG       31  31 100 SE8       29.97F VSB 1/4 WCI  23
LEXINGTON      CLEAR     31  28  89 SW3       29.93F
HOLDREGE       CLEAR     35  30  82 SW7       29.94F WCI  29
HEBRON         CLOUDY    32  31  96 SE3       30.00F FOG

...NEBRASKA PANHANDLE...

CITY           SKY/WX    TMP DP  RH WIND       PRES   REMARKS
CHADRON        MOCLDY    29  24  82 SW6       29.88F WCI  23
ALLIANCE       MOCLDY    23  20  88 W5        29.90S WCI  17
SCOTTSBLUFF    MOCLDY    30  23  75 NW7       29.92S WCI  23
SIDNEY         CLOUDY    33  26  75 SW9       29.93F WCI  25

...WESTERN AND NORTH CENTRAL NEBRASKA...

CITY           SKY/WX    TMP DP  RH WIND       PRES   REMARKS
VALENTINE      CLOUDY    29  25  85 W5        29.90S WCI  24
AINSWORTH      CLEAR     27  25  91 W8        29.89F WCI  19
ONEILL         CLOUDY    31  31 100 S5        29.93S FOG     WCI  26
BROKEN BOW     CLEAR     30  26  85 CALM      29.92F
IMPERIAL       PTCLDY    33  25  72 SW3       29.94F
NORTH PLATTE   CLEAR     25  22  88 NW6       29.94S WCI  18
MCCOOK         CLEAR     33  27  78 SW9       29.95S WCI  25

...EASTERN NEBRASKA...

CITY           SKY/WX    TMP DP  RH WIND       PRES   REMARKS
NORFOLK        CLOUDY    31  31 100 S12       29.98F FOG     WCI  22
SO SIOUX CITY  CLOUDY    33  31  92 S16       30.03F FOG     WCI  23
TEKAMAH        CLOUDY    34  31  88 S8        30.04F WCI  27
COLUMBUS       CLOUDY    32  28  86 SE5       30.01F WCI  27
ALBION         FOG       31  29  94 S8        29.98F VSB 1/2 WCI  24
OMAHA EPPLEY   CLOUDY    35  32  88 S12       30.06F FOG     WCI  27
OFFUTT AFB     CLOUDY    34  32  93 SE9       30.05F FOG     WCI  27
MILLARD        CLOUDY    35  32  90 SE9       30.05F FOG     WCI  28
LINCOLN        FOG       35  34  96 S8        30.04F VSB 1/2 WCI  29
NEBRASKA CITY  FOG       34  34 100 S7        30.07S VSB 1/2 WCI  28
BEATRICE       CLOUDY    37  37 100 SE7       30.03F FOG     WCI  31
FALLS CITY     CLOUDY    35  33  92 E5        30.07F FOG     WCI  31

...NORTHERN KANSAS...

CITY           SKY/WX    TMP DP  RH WIND       PRES   REMARKS
GOODLAND       CLOUDY    33  28  81 S3        29.95F
HILL CITY      MOCLDY    40  33  76 W5        29.98S
NORTON         CLEAR     34  27  75 S7        29.95F WCI  28
PHILLIPSBURG   CLEAR     41  36  81 S5        29.98S
SMITH CENTER   CLEAR     34  34 100 S7        29.99S FOG     WCI  28
BELOIT         CLEAR     37  36  93 SE7       30.01F WCI  32
HAYS           MOCLDY    36  28  75 S6        30.00F WCI  31
RUSSELL        MOCLDY    38  37  97 S16       29.99F WCI  29
CONCORDIA      MOCLDY    38  36  92 S16       30.01S WCI  29
SALINA         PTCLDY    40  36  86 S10       30.05F WCI  33
TOPEKA         PTCLDY    41  36  82 S7        30.11F



USA.gov is the U.S. government's official web portal to all federal, state and local government web resources and services.